Preview of NWS' New Version of Forecast
This preview is not operational and should not be used for support decisions.

Regional Weather Roundup (RWR)

Issued by National Weather Service (NWS)

                            
000
ASUS44 KJAN 221810
RWRMS 

MISSISSIPPI HOURLY WEATHER ROUNDUP
NATIONAL WEATHER SERVICE JACKSON MS
100 PM CDT FRI MAR 22 2019

NOTE: "FAIR: INDICATES FEW OR NO CLOUDS BELOW 12,000 FEET WITH NO
SIGNIFICANT WEATHER AND/OR OBSTRUCTIONS TO VISIBILITY.

MSZ001>002-007>008-010>013-018>021-025>028-034>036-221900-
NORTHWEST MISSISSIPPI
  
CITY           SKY/WX    TMP DP  RH WIND       PRES   REMARKS
BATESVILLE     FAIR      63  37  39 W6G17     30.19S                  
CLARKSDALE     SUNNY     68  39  34 VRB6      30.22F                  
CLEVELAND      FAIR      64  35  33 CALM      30.22S                  
GREENWOOD      FAIR      64  36  35 W8        30.21F                  
6HR MIN TEMP:  36; 6HR MAX TEMP:  64;                                

GREENVILLE     FAIR      65  38  36 N8        30.21F                  
6HR MIN TEMP:  39; 6HR MAX TEMP:  65;                                

OLIVE BRANCH   MOSUNNY   61  34  36 NW7       30.19S                  
OXFORD         FAIR      63  32  31 NW8G14    30.20S                  
TUNICA           N/A     59  34  38 W7        30.22F                  
WINONA         FAIR      62  38  39 W7        30.20F                  
$$

MSZ003>006-009-014>017-022>024-029>033-037>039-221900-
NORTHEAST MISSISSIPPI
  
CITY           SKY/WX    TMP DP  RH WIND       PRES   REMARKS
ABERDEEN       FAIR      61  43  51 NW7       30.19F                  
COLUMBUS AFB   NOT AVBL                                               
CORINTH        FAIR      63  34  34 W9        30.16F                  
GOLDN TRIANGLE FAIR      62  38  40 CALM      30.19F                  
STARKVILLE     FAIR      63  36  36 N5        30.20F                  
TUPELO         FAIR      64  34  32 W5        30.18F                  
6HR MIN TEMP:  36; 6HR MAX TEMP:  64;                                

$$

MSZ040-058-221900-
CENTRAL MISSISSIPPI
  
CITY           SKY/WX    TMP DP  RH WIND       PRES   REMARKS
JACKSON INTL   FAIR      66  34  30 N9        30.20F                  
6HR MIN TEMP:  38; 6HR MAX TEMP:  67;                                

JACKSON HAWKNS FAIR      67  34  29 VRB7      30.20F                  
6HR MIN TEMP:  41; 6HR MAX TEMP:  68;                                

MADISON        FAIR      64  37  36 NW7       30.20S                  
MERIDIAN KEY   FAIR      67  33  28 NW9       30.17F                  
6HR MIN TEMP:  37; 6HR MAX TEMP:  67;                                

MERIDIAN NAS   FAIR      66  36  32 N9        30.18F                  
6HR MIN TEMP:  37; 6HR MAX TEMP:  66;                                

RAYMOND        FAIR      68  37  32 NW6G16    30.20S                  
VICKSBURG VKS  CLEAR     68  36  30 N8        30.21S                  
$$

MSZ059>079-221900-
SOUTH MISSISSIPPI
  
CITY           SKY/WX    TMP DP  RH WIND       PRES   REMARKS
HATTIESBURG    FAIR      67  36  31 N6        30.18F                  
6HR MIN TEMP:  39; 6HR MAX TEMP:  67;                                

LAUREL         CLEAR     65  36  33 N8        30.18F                  
MCCOMB         FAIR      70  34  26 N6        30.19F                  
6HR MIN TEMP:  39; 6HR MAX TEMP:  71;                                

NATCHEZ        FAIR      70  39  32 N6        30.19F                  
6HR MIN TEMP:  43; 6HR MAX TEMP:  70;                                

PINE BELT      FAIR      68  38  33 N9        30.19F                  
6HR MIN TEMP:  37; 6HR MAX TEMP:  68;                                

$$

MSZ080>082-221900-
COASTAL MISSISSIPPI
  
CITY           SKY/WX    TMP DP  RH WIND       PRES   REMARKS
BAY ST LOUIS   SUNNY     70  36  28 E6        30.18F                  
BILOXI         NOT AVBL                                               
PASCAGOULA     FAIR      71  35  26 VRB6      30.16F                  
6HR MIN TEMP:  38; 6HR MAX TEMP:  72;                                

GULFPORT       FAIR      71  38  29 VRB6      30.17F                  
6HR MIN TEMP:  42; 6HR MAX TEMP:  71;                                

$$

LAZ007>009-015>016-023>026-221900-
NORTHEAST LOUISIANA
  
CITY           SKY/WX    TMP DP  RH WIND       PRES   REMARKS
BASTROP        FAIR      70  37  30 NW6       30.20F                  
TALLULAH/VBURG FAIR      65  41  41 E7        30.21F                  
6HR MIN TEMP:  43; 6HR MAX TEMP:  65;                                

VIDALIA        FAIR      69  37  30 N6        30.19F                  
$$